Weather History for Coldwater, MI

Change the Weather History Date:

Saturday, September 29, 2012

  Actual Average (KJYM) Record (KJYM)
Temperature  
Mean Temperature 56 °F -  
Max Temperature 71 °F 66 °F 93 °F (1953)
Min Temperature 41 °F 43 °F 26 °F (1951)
Degree Days  
Heating Degree Days 9    
Growing Degree Days 6 (Base 50)    
Moisture  
Dew Point 45 °F    
Average Humidity 72    
Maximum Humidity 97    
Minimum Humidity 35    
Precipitation  
Precipitation 0.00 in - - ()
Sea Level Pressure  
Sea Level Pressure 30.03 in    
Wind  
Wind Speed 2 mph (WNW)    
Max Wind Speed 12 mph    
Max Gust Speed 17 mph    
Visibility 7 miles    
Events Fog    
Averages and records for this station are not official NWS values.
T = Trace of Precipitation, MM = Missing Value Source: NWS Daily Summary

Daily Weather History Graph

Daily Weather History Graph

Search for Another Location

Airport:

Trip Planner

Search our weather history database for the weather conditions in past years. The results will help you decide how hot, cold, wet, or windy it might be!

Date:

Astronomy

Sep. 29, 2012 Rise Set
Actual Time 7:35 AM EDT 7:24 PM EDT
Civil Twilight 7:07 AM EDT 7:52 PM EDT
Nautical Twilight 6:35 AM EDT 8:24 PM EDT
Astronomical Twilight 6:02 AM EDT 8:57 PM EDT
Moon 6:55 PM EDT 7:06 AM EDT
Length of Visible Light 12h 44m
Length of Day
11h 48m
Full, 100% of the Moon is Illuminated
Sep 29
Full
Sep 29
Full
Oct 8
Last Quarter
Oct 15
New
Oct 21
First Quarter

Hourly Weather History & Observations

Time (EDT) Temp. Dew Point Humidity Pressure Visibility Wind Dir Wind Speed Gust Speed Precip Events Conditions
12:14 AM 46.8 °F 45.5 °F 95% 30.11 in 7.0 mi Calm Calm - N/A   Clear
12:35 AM 46.6 °F 45.5 °F 96% 30.11 in 7.0 mi Calm Calm - N/A   Clear
12:55 AM 46.4 °F 45.5 °F 97% 30.11 in 5.0 mi Calm Calm - N/A   Clear
1:14 AM 46.2 °F 44.8 °F 95% 30.11 in 5.0 mi Calm Calm - N/A   Clear
1:35 AM 46.0 °F 45.0 °F 96% 30.10 in 5.0 mi Calm Calm - N/A   Clear
1:55 AM 45.5 °F 44.6 °F 97% 30.10 in 4.0 mi Calm Calm - N/A   Clear
2:15 AM 45.5 °F 44.4 °F 96% 30.10 in 4.0 mi Calm Calm - N/A   Clear
2:35 AM 45.5 °F 44.6 °F 97% 30.10 in 4.0 mi Calm Calm - N/A   Clear
2:55 AM 45.0 °F 44.1 °F 97% 30.10 in 2.0 mi Calm Calm - N/A   Clear
3:15 AM 44.8 °F 43.9 °F 97% 30.10 in 0.8 mi Calm Calm - N/A   Mist
3:35 AM 44.8 °F 43.9 °F 97% 30.10 in 1.8 mi Calm Calm - N/A   Mist
3:55 AM 44.6 °F 43.7 °F 97% 30.10 in 1.5 mi Calm Calm - N/A   Scattered Clouds
4:15 AM 43.7 °F 42.8 °F 97% 30.09 in 3.0 mi Calm Calm - N/A   Scattered Clouds
4:35 AM 43.0 °F 42.1 °F 97% 30.09 in 0.5 mi Calm Calm - N/A Fog Fog
4:54 AM 42.6 °F 41.7 °F 97% 30.09 in 2.5 mi Calm Calm - N/A   Scattered Clouds
5:15 AM 42.8 °F 41.9 °F 97% 30.08 in 3.0 mi Calm Calm - N/A   Clear
5:35 AM 42.3 °F 41.4 °F 97% 30.08 in 2.0 mi Calm Calm - N/A   Clear
5:54 AM 43.0 °F 42.1 °F 97% 30.08 in 0.8 mi Calm Calm - N/A   Mist
6:15 AM 41.9 °F 41.0 °F 97% 30.09 in 3.0 mi Calm Calm - N/A   Clear
6:35 AM 41.7 °F 40.8 °F 97% 30.09 in 1.0 mi Calm Calm - N/A   Overcast
6:54 AM 41.9 °F 41.0 °F 97% 30.09 in 0.2 mi Calm Calm - N/A Fog Fog
7:15 AM 41.7 °F 40.8 °F 97% 30.09 in 1.0 mi Calm Calm - N/A   Overcast
7:35 AM 42.6 °F 41.7 °F 97% 30.09 in 0.8 mi Calm Calm - N/A   Mostly Cloudy
7:54 AM 42.3 °F 41.4 °F 97% 30.10 in 0.2 mi Calm Calm - N/A Fog Fog
8:15 AM 42.6 °F 41.7 °F 97% 30.10 in 0.8 mi Calm Calm - N/A   Mostly Cloudy
8:35 AM 44.2 °F 43.5 °F 97% 30.09 in 2.0 mi Calm Calm - N/A   Scattered Clouds
8:55 AM 47.3 °F 46.6 °F 97% 30.09 in 3.0 mi Calm Calm - N/A   Scattered Clouds
9:15 AM 50.4 °F 49.3 °F 96% 30.09 in 7.0 mi Calm Calm - N/A   Scattered Clouds
9:35 AM 52.7 °F 49.3 °F 88% 30.08 in 10.0 mi Calm Calm - N/A   Clear
9:55 AM 54.3 °F 49.1 °F 83% 30.09 in 10.0 mi Calm Calm - N/A   Clear
10:15 AM 56.1 °F 48.2 °F 75% 30.09 in 10.0 mi Calm Calm - N/A   Clear
10:34 AM 57.6 °F 46.4 °F 66% 30.09 in 10.0 mi Calm Calm - N/A   Scattered Clouds
10:55 AM 60.1 °F 48.2 °F 65% 30.09 in 10.0 mi WNW 4.6 mph - N/A   Scattered Clouds
11:15 AM 62.2 °F 50.5 °F 65% 30.08 in 10.0 mi WNW 5.8 mph - N/A   Clear
11:34 AM 63.0 °F 50.0 °F 63% 30.08 in 10.0 mi NW 8.1 mph - N/A   Clear
11:55 AM 64.4 °F 48.9 °F 57% 30.07 in 10.0 mi NW 5.8 mph - N/A   Clear
12:15 PM 64.6 °F 48.6 °F 56% 30.06 in 10.0 mi WNW 4.6 mph - N/A   Clear
12:34 PM 64.8 °F 49.1 °F 57% 30.05 in 10.0 mi NNW 5.8 mph - N/A   Clear
12:55 PM 65.5 °F 48.7 °F 55% 30.04 in 10.0 mi West 5.8 mph - N/A   Clear
1:15 PM 66.9 °F 49.3 °F 53% 30.04 in 10.0 mi Calm Calm - N/A   Clear
1:34 PM 68.4 °F 48.4 °F 49% 30.02 in 10.0 mi West 11.5 mph - N/A   Clear
1:55 PM 69.6 °F 45.0 °F 41% 30.01 in 10.0 mi WNW 8.1 mph - N/A   Clear
2:15 PM 69.8 °F 43.3 °F 38% 30.00 in 10.0 mi WNW 10.4 mph - N/A   Clear
2:35 PM 70.3 °F 45.0 °F 40% 29.99 in 10.0 mi West 6.9 mph - N/A   Clear
2:55 PM 70.0 °F 44.1 °F 39% 29.99 in 10.0 mi West 5.8 mph - N/A   Clear
3:15 PM 71.1 °F 44.2 °F 38% 29.98 in 10.0 mi West 11.5 mph 17.3 mph N/A   Scattered Clouds
3:35 PM 71.1 °F 43.3 °F 37% 29.98 in 10.0 mi West 9.2 mph - N/A   Scattered Clouds
3:55 PM 70.7 °F 41.5 °F 35% 29.97 in 10.0 mi WNW 6.9 mph - N/A   Scattered Clouds
4:14 PM 70.2 °F 42.8 °F 37% 29.96 in 10.0 mi WNW 9.2 mph - N/A   Scattered Clouds
4:35 PM 70.7 °F 43.5 °F 37% 29.96 in 10.0 mi WNW 9.2 mph - N/A   Scattered Clouds
4:55 PM 70.5 °F 43.3 °F 37% 29.95 in 10.0 mi NW 4.6 mph - N/A   Scattered Clouds
5:14 PM 69.1 °F 42.4 °F 38% 29.95 in 10.0 mi West 6.9 mph - N/A   Scattered Clouds
5:35 PM 69.8 °F 43.9 °F 39% 29.95 in 10.0 mi WNW 9.2 mph - N/A   Scattered Clouds
5:55 PM 67.8 °F 43.9 °F 42% 29.95 in 10.0 mi NNW 5.8 mph - N/A   Scattered Clouds
6:14 PM 67.8 °F 44.1 °F 42% 29.95 in 10.0 mi NW 5.8 mph - N/A   Clear
6:35 PM 67.5 °F 42.8 °F 41% 29.95 in 10.0 mi NW 5.8 mph - N/A   Clear
6:55 PM 66.6 °F 43.9 °F 44% 29.95 in 10.0 mi Calm Calm - N/A   Clear
7:15 PM 64.4 °F 43.7 °F 47% 29.95 in 10.0 mi WNW 3.5 mph - N/A   Clear
7:35 PM 62.6 °F 44.1 °F 51% 29.95 in 10.0 mi WNW 4.6 mph - N/A   Clear
7:55 PM 60.8 °F 43.7 °F 53% 29.95 in 10.0 mi WNW 4.6 mph - N/A   Clear
8:15 PM 60.4 °F 43.5 °F 54% 29.95 in 10.0 mi WNW 4.6 mph - N/A   Clear
8:35 PM 56.8 °F 44.6 °F 64% 29.94 in 10.0 mi West 4.6 mph - N/A   Clear
8:54 PM 56.7 °F 44.8 °F 64% 29.95 in 10.0 mi West 3.5 mph - N/A   Clear
9:15 PM 56.3 °F 43.9 °F 63% 29.95 in 10.0 mi WNW 4.6 mph - N/A   Clear
9:35 PM 54.9 °F 44.6 °F 68% 29.95 in 10.0 mi West 3.5 mph - N/A   Clear
10:15 PM 55.0 °F 45.0 °F 69% 29.95 in 10.0 mi West 3.5 mph - N/A   Clear
10:34 PM 53.1 °F 45.5 °F 75% 29.95 in 10.0 mi Calm Calm - N/A   Clear
10:55 PM 52.2 °F 45.5 °F 78% 29.95 in 10.0 mi Calm Calm - N/A   Clear
11:15 PM 50.7 °F 45.5 °F 82% 29.95 in 10.0 mi Calm Calm - N/A   Clear
11:34 PM 49.3 °F 45.5 °F 87% 29.95 in 10.0 mi Calm Calm - N/A   Clear
11:55 PM 49.1 °F 45.7 °F 88% 29.94 in 10.0 mi Calm Calm - N/A   Clear